weather.gov     
National Weather Service

Terminal Aerodrome Forecast
NWS Homepage
This page is being discontinued on March 12, 2014.
The same data is available at this site. Please update your bookmarks.
Thank you, and we apologize for the inconvenience.
Please send an email to SR-SRH.Webmaster@noaa.gov with any concerns.


Current Version
Previous Version:    01  02  03  04  05  06  07  08  09  10  11  12  13  14  
[Printable]
227
FTUS41 KBOX 011727
TAFMHT
TAF
KMHT 011727Z 0118/0218 14004KT P6SM BKN050
     FM012100 22004KT P6SM SCT250
     FM020900 VRB03KT P6SM BKN050
     FM021200 VRB03KT P6SM BKN015
     FM021500 21005KT P6SM SCT250=


227
FTUS41 KBOX 011727
TAFMHT
TAF
KMHT 011727Z 0118/0218 14004KT P6SM BKN050
     FM012100 22004KT P6SM SCT250
     FM020900 VRB03KT P6SM BKN050
     FM021200 VRB03KT P6SM BKN015
     FM021500 21005KT P6SM SCT250=




U.S. Dept. of Commerce
NOAA National Weather Service
1325 East West Highway
Silver Spring, MD 20910
E-mail: w-nws.webmaster@noaa.gov
Page last modified: May 16, 2007
NATIONAL WEATHER SERVICE: for Safety, for Work, for Fun - FOR LIFE